Aérodrome :
LOGIN :

S'inscrire | Disclaimer

   EN    FR    IT 

 










Légende :    VFR   VFR Marginal   IFR   IFR Intensif   IFR Très Intensif
Visi : 
Plafond : 
>= 8 km
>= 3000ft
5 à 8 km
1000 à 3000 ft
1500m à 5 km
500 à 1000 ft
800 à 1500m
200 à 500 ft
< 800m
< 200 ft
Symboles :   Orages  Brouillard  Fortes neiges  Fortes précipitations  Vent > 20 kt
SIGMETs :   Divers  Orages  Givrage  Turbulence  Onde Orograph.  Cendres Volcan.







- Altitude de l'aérodrome : 245 ft


ETHS - Fassberg

DERNIER METAR :
  • 230720Z 20012KT 9999 SCT140 BKN270 08/03 Q1001 BLU+BLU+ BECMG BLU

METARs EXPIRÉS :
  • 230620Z 20011KT 9999 BKN250 08/03 Q1001 BLU+BLU+
  • 230520Z 20010KT 9999 BKN260 07/03 Q1001 BLU+BLU+
  • 230420Z 20010KT 9999 SCT260 07/03 Q1001 BLU+

TAF TAF ETHS
Valide du 23 à 06h jusqu'au 23 à 15h UTC


230507Z 2306/2315 19010KT 9999 NSW BKN250
BECMG 2309/2311 20012G28KT 9999 NSW BKN040
Pas de NOTAMs connus pour ce terrain.



MET'MAP, la Météo Aéronautique d'un coup d'oeil ! - Copyright ORBIFLY Décembre 2007 - Disclaimer

ORBIFLY MET'MAP TEAM :

Programmation & Développement : Alexandra Zaïnal
Conception & Développement : Baudouin d'Aumeries
Co-Programmation & Développement : Marc-Olivier Méhu
Soutien technique & logistique : Manuel Goepfert

Contact : metmap@orbifly.com




SOURCES & CREDITS :

   NOAA